TIME,DELAY(SENSOR),PRES,OXYGEN,RAWTEMP,T(OPTODE),TCPHASE,FLUOR,BETA(BETA700),BETA(BETA412),BETA(BETA440),CDOM,C(CSC),ED(ED412.20),ED(ED444.00),ED(ED489.60),ED(ED554.30),LU(LU412.10),LU(LU443.90),LU(LU489.70),LU(LU554.70),COMP,TILTX,TILTY,CHECK
1354072520,5810,892.5700073242188000,34.1891288757324200,558.3289794921875000,4.5376701354980470,56.3964500427246100,56,101,101,79,83,15557,0,0,0,0,2147121316,2147775268,2147570011,2147572992,993,3,13,48801
1354076116,5809,944.7899780273438000,41.5927810668945300,565.2634887695312000,4.3226571083068850,55.3280296325683600,55,100,101,77,82,15554,0,0,0,0,2147122614,2147780032,2147573650,2147571712,2967,3,13,27052
1354079716,5812,966.1400146484375000,42.8607597351074200,567.2401123046875000,4.2612929344177250,55.1656608581543000,55,98,101,78,82,15553,0,0,0,0,2147125001,2147775954,2147575908,2147570550,3239,3,13,18488
1354083316,5809,993.7500000000000000,43.5975494384765600,568.9688720703125000,4.2075982093811035,55.0815391540527340,55,97,101,79,81,15549,0,0,0,0,2147124681,2147773403,2147571117,2147570724,3578,2,13,59647
1354086916,5810,1000.0999755859375000,43.4181594848632800,569.1074829101562000,4.2032909393310550,55.1019515991210940,55,98,100,78,82,15552,0,0,0,0,2147122212,2147774162,2147575085,2147571620,51,3,13,60691
1354090516,5809,1001.7700195312500000,43.2396316528320300,569.2744140625000000,4.1981091499328610,55.1325492858886700,54,98,99,78,81,15552,0,0,0,0,2147125513,2147776301,2147571520,2147571867,171,3,13,22086
1354094116,5809,1005.2199707031250000,43.1798706054687500,569.7578125000000000,4.1830859184265140,55.1472206115722660,55,100,100,78,82,15552,0,0,0,0,2147123949,2147779547,2147574153,2147570706,546,3,13,39920
1354097716,5809,1005.2800292968750000,43.2987709045410160,569.6480712890625000,4.1864972114562990,55.1295089721679700,54,98,100,78,82,15551,0,0,0,0,2147122816,2147778870,2147576649,2147570185,387,2,13,49755
1354101316,5810,1000.5999755859375000,43.1435203552246100,570.1287841796875000,4.1715579032897950,55.1531486511230500,54,101,100,79,82,15551,0,0,0,0,2147123730,2147776228,2147573641,2147572050,449,3,13,28023
1354104916,5809,997.7000122070312000,43.5245399475097660,571.1876831054688000,4.1386470794677730,55.1096305847168000,55,99,100,78,83,15551,0,0,0,0,2147123428,2147770870,2147571556,2147570459,519,2,13,33783
1354108516,5812,998.1699829101562000,43.7122802734375000,571.0991821289062000,4.1413969993591310,55.0851516723632800,54,99,100,78,83,15552,0,0,0,0,2147124132,2147771977,2147575625,2147571355,3547,3,13,57759
1354112116,5811,999.5800170898438000,43.3361015319824200,570.7216186523438000,4.1531329154968260,55.1294517517089840,55,100,99,77,82,15550,0,0,0,0,2147124525,2147774692,2147571748,2147569517,3358,2,13,51675
1354115716,5812,1009.3599853515625000,43.8740310668945300,571.1159057617188000,4.1408791542053220,55.0621299743652340,54,100,100,78,81,15446,0,0,0,0,2147123392,2147773083,2147572790,2147569956,105,2,13,44579
1354119316,5812,1005.7399902343750000,43.0385513305664060,570.9124145507812000,4.1472029685974120,55.1769599914550800,55,101,100,78,82,15448,0,0,0,0,2147124178,2147775296,2147572416,2147570249,8,3,13,57526
1354122916,5811,1009.1799926757812000,43.5205688476562500,571.1599121093750000,4.1395130157470700,55.1093788146972660,54,99,101,78,83,15455,0,0,0,0,2147124022,2147779026,2147576475,2147571392,662,3,13,38685
1354126516,5811,1009.0800170898438000,43.7827491760253900,570.7847290039062000,4.1511731147766110,55.0743408203125000,55,98,100,78,83,15452,0,0,0,0,2147125796,2147776155,2147574180,2147569462,2852,3,13,20406
1354130116,5810,1009.7199707031250000,43.4328384399414060,570.7075195312500000,4.1535739898681640,55.1170005798339840,55,98,100,77,82,15451,0,0,0,0,2147123172,2147778925,2147575442,2147570404,3365,2,13,17345
1354133716,5810,1006.0000000000000000,42.9614295959472660,570.0720825195312000,4.1733188629150390,55.1771888732910160,55,99,100,76,81,15450,0,0,0,0,2147122459,2147776877,2147576969,2147570313,3293,3,13,14693
1354137316,5808,1011.8099975585938000,43.0742797851562500,571.1627807617188000,4.1394209861755370,55.1751708984375000,55,101,99,78,81,15459,0,0,0,0,2147124224,2147779282,2147574610,2147569444,242,2,13,35515
1354140916,5812,1002.7399902343750000,43.0573310852050800,570.2841796875000000,4.1667289733886720,55.1719093322753900,55,97,102,77,83,15449,0,0,0,0,2147128265,2147771968,2147569856,2147569636,3506,2,13,23346
1354144516,5809,1009.8499755859375000,43.0687484741210940,570.6878051757812000,4.1541838645935060,55.1685714721679700,54,97,100,78,82,15448,0,0,0,0,2147124480,2147775542,2147570870,2147570121,65,3,13,53715
1354148116,5813,1007.7500000000000000,42.8754882812500000,571.3181762695312000,4.1345901489257810,55.2035293579101560,54,97,102,79,82,15448,0,0,0,0,2147123858,2147775698,2147570505,2147568374,70,3,13,823
1354151716,5809,1014.7500000000000000,43.4210014343261700,570.8557739257812000,4.1489639282226560,55.1238899230957000,55,100,100,77,81,15450,0,0,0,0,2147124315,2147774546,2147576475,2147567963,3366,3,13,42832
1354155316,5807,1008.0900268554688000,43.0592308044433600,570.7603149414062000,4.1519341468811035,55.1730690002441400,55,101,99,79,82,15448,0,0,0,0,2147122057,2147780434,2147575414,2147570486,257,2,13,26960
1354158916,5810,1006.5200195312500000,43.1946907043457000,570.9910278320312000,4.1447620391845700,55.1531105041503900,53,102,101,76,82,15451,0,0,0,0,2147124708,2147779620,2147576466,2147569152,16,3,13,31683
1354162516,5812,1011.2000122070312000,43.4263381958007800,570.8394775390625000,4.1494688987731930,55.1232604980468750,55,100,100,79,83,15447,0,0,0,0,2147123602,2147775606,2147572909,2147571675,3489,3,13,46679
1354166116,5812,1013.7299804687500000,43.3768615722656250,570.8737792968750000,4.1484031677246090,55.1294288635253900,55,99,99,78,83,15447,0,0,0,0,2147119168,2147779437,2147572516,2147568557,8,3,13,947
1354169716,5807,1008.2899780273438000,42.9267311096191400,571.0791015625000000,4.1420230865478520,55.1947593688964840,55,98,100,78,81,15447,0,0,0,0,2147122761,2147778258,2147573595,2147570614,108,3,13,17886
1354173316,5811,1015.8099975585938000,43.1242790222168000,571.1983032226562000,4.1383171081542970,55.1708908081054700,56,101,101,78,83,15444,0,0,0,0,2147121462,2147772242,2147576978,2147572580,3374,3,13,62859
1354176916,5812,1022.4199829101562000,43.4433784484863300,570.8499145507812000,4.1491489410400390,55.1172103881835940,54,98,101,77,82,15446,0,0,0,0,2147123117,2147774061,2147571556,2147571520,228,3,13,19982
1354180516,5810,1011.3200073242188000,42.7398986816406250,570.5579833984375000,4.1582179069519040,55.2194519042968750,56,98,99,79,81,15449,0,0,0,0,2147123254,2147773110,2147571922,2147571062,159,3,13,23729
1354184116,5812,1013.1199951171875000,43.1487617492675800,571.2758178710938000,4.1359081268310550,55.1690406799316400,56,101,101,77,83,15447,0,0,0,0,2147123117,2147773513,2147572900,2147567076,3,3,13,55692
1354187716,5809,1016.1500244140625000,43.3017997741699200,571.2014160156250000,4.1382222175598145,55.1415214538574200,56,99,101,79,83,15444,0,0,0,0,2147121645,2147773302,2147574500,2147575204,3563,2,13,5017
1354191316,5808,1014.6599731445312000,43.2992401123046900,571.1970825195312000,4.1383528709411620,55.1449317932128900,54,98,100,78,82,15445,0,0,0,0,2147126134,2147771081,2147572946,2147569344,167,3,13,55793
1354194916,5813,1011.2100219726562000,42.6857910156250000,571.2935791015625000,4.1353549957275390,55.2348785400390600,55,101,101,79,81,15446,0,0,0,0,2147121161,2147768813,2147574482,2147568749,123,3,13,55144
1354198516,5811,1012.0000000000000000,42.8390083312988300,571.2376098632812000,4.1370940208435060,55.2079811096191400,55,100,101,78,82,15446,0,0,0,0,2147123428,2147772251,2147573888,2147571364,3475,2,13,21934
1354202116,5809,1018.0900268554688000,42.8619003295898440,570.8330078125000000,4.1496720314025880,55.2013206481933600,55,99,101,78,82,15444,0,0,0,0,2147124891,2147775204,2147575478,2147571227,173,3,13,8161
1354205716,5811,1016.4099731445312000,43.3154716491699200,571.0903930664062000,4.1416702270507810,55.1380310058593750,55,98,100,76,83,15442,0,0,0,0,2147120347,2147770861,2147570678,2147571602,3564,3,13,16078
1354209316,5809,1017.3200073242188000,43.3417701721191400,570.5106201171875000,4.1596951484680180,55.1311607360839840,54,100,101,78,84,15444,0,0,0,0,2147124260,2147773147,2147571446,2147569115,2953,2,13,52901
1354212916,5810,1018.3599853515625000,42.8113212585449200,571.2047729492188000,4.1381149291992190,55.2169189453125000,55,98,101,77,82,15445,0,0,0,0,2147124973,2147778249,2147575076,2147570825,3589,3,13,19240
1354216516,5809,1013.0999755859375000,42.9090690612793000,570.8815917968750000,4.1481609344482420,55.1979103088378900,55,99,100,79,83,15444,0,0,0,0,2147123227,2147771913,2147580525,2147564937,228,3,13,42406
1354217156,5810,1011.7100219726562000,42.7454910278320300,571.0534057617188000,4.1428198814392090,55.2197303771972660,55,99,101,77,82,15443,0,0,0,0,2147122477,2147771200,2147574902,2147569280,224,2,13,3041
